STARLINK-32448, 62206

Orbit data source: Space-Track

STARLINK-32448, 62206 is a payload satellite owned by SpaceX/Seattle (US) in LEO that was launched on Wed, 04 Dec 2024 UTC via an FALCON 9 launch vehicle from the Air Force Eastern Test Range (AFETR). Payload-class satellites include a variety of spacecraft equipped with specific instruments for various scientific and technological missions. These include communications satellites like Starlink; space stations such as the ISS; scientific satellites like the Hubble; Earth observation satellites from companies like Planet Labs, Umbra, and HawkEye 360; GPS; miniature CubeSats for education and research; and military/defense satellites.

Loading next visibility...
Identifier
62206, 2024-229Q
Orbit
LEO
Country
Flag of USUS
Related business
Manufacturer
SpaceX/Seattle
Mission
Operational Commercial Communications
Bus & Motor
STARLINK V2M, Unknown motor
Mass
730 kg wet, ~700 kg dry
Launch date (UTC)
2024-12-04 (2 years ago)
Launch vehicle
FALCON 9
Launch site
Air Force Eastern Test Range (AFETR)
Object type
Payload
Rocket body
Debris
Shape & HBR
Box + 2 Pan, 17.7 m
Radar Cross Section
33.884 m², Large (>1 m²)

Expand to show TLE details & history
Last TLE update: 19 hours ago

TLE from 19 hours ago
0 STARLINK-32448
1 62206U 24229Q   26171.07480168  .00020186  00000-0  74040-3 0  9991
2 62206  43.0027  52.1705 0001470 279.4274  80.6412 15.27609353 86221
Epoch: 2026-06-20T01:47Z
TLE epoch observation values (Epoch: 2026-06-20T01:47:42.865Z)
Latitude
0.00003°
Longitude
116.94729°
Altitude
482.573 km
Speed
7.626 km/s
True Right ascension
03h 28m 40s
True Declination
0° 00' 00"
Sunlit
Object was in daylight at epoch
Visualization orbit readout
Latitude
Unknown
Longitude
Unknown
Altitude
Unknown
Speed
Unknown
Apparent Right ascension
Unknown
Apparent Declination
Unknown
Sunlit
N/A
Visualization observer readout
Local Sidereal Time
07:23:32
Azimuth
Unknown
Elevation
Unknown
Doppler factor
Unknown
Orbital elements
Apogee altitude
485.915 km
Perigee altitude
483.897 km
Semi-major axis
6,863.043 km
Eccentricity
0.00015
Inclination
43.0027°
RAAN
52.1705°
Arg. of periapsis
279.4274°
True anomaly
80.65782°
Mean anomaly
80.6412°
Eccentric anomaly
80.64951°
Mean motion
3.8174 °/min
Orbital period
94.3 mins
BSTAR
0.0007404
Loading maneuver chart data...
Computing Atmospheric mass density...
Loading historical data...
Loading historical data...
Loading historical data...
Loading historical data...
Loading historical data...
Loading historical data...
Loading historical data...

Documentation

Showing up to 5 results
|